Buckeye, AZ

10:42 AM MST on January 24, 2017 (GMT -0700)
Buckeye Municipal

Weather History for KBXK - April, 2013

Change the Weather History Date:

Monday, April 1, 2013

  Actual Average (KGYR) Record (KGYR)
Temperature  
Mean Temperature 66 °F -  
Max Temperature 82 °F 76 °F 100 °F (2003)
Min Temperature 51 °F 50 °F 42 °F (2016)
Cooling Degree Days 2    
Growing Degree Days 16 (Base 50)    
Moisture  
Dew Point 32 °F    
Average Humidity 29    
Maximum Humidity 51    
Minimum Humidity 12    
Precipitation  
Precipitation 0.00 in - - ()
Sea Level Pressure  
Sea Level Pressure 29.93 in    
Wind  
Wind Speed 6 mph (WSW)    
Max Wind Speed 12 mph    
Max Gust Speed 23 mph    
Visibility 10 miles    
Events      
Averages and records for this station are not official NWS values.
T = Trace of Precipitation, MM = Missing Value Source: NWS Daily Summary

Daily Weather History Graph

Daily Weather History Graph

Search for Another Location

Airport or City:

Trip Planner

Search our weather history database for the weather conditions in past years. The results will help you decide how hot, cold, wet, or windy it might be!

Date:

Astronomy

Apr. 01, 2013 Rise Set
Actual Time 6:17 AM MST 6:51 PM MST
Civil Twilight 5:53 AM MST 7:16 PM MST
Nautical Twilight 5:23 AM MST 7:45 PM MST
Astronomical Twilight 4:53 AM MST 8:15 PM MST
Moon No Moon Rise 10:21 AM MST (4/1)
Length of Visible Light 13h 23m
Length of Day
12h 33m
Waning Gibbous, 66% of the Moon is Illuminated
Apr 1
Waning Gibbous
Apr 2
Last Quarter
Apr 10
New
Apr 18
First Quarter
Apr 25
Full

Hourly Weather History & Observations

Time (MST) Temp. Dew Point Humidity Pressure Visibility Wind Dir Wind Speed Gust Speed Precip Events Conditions
12:15 AM 68.0 °F 35.6 °F 30% 29.91 in 10.0 mi West 10.4 mph - N/A   Clear
12:35 AM 68.0 °F 35.6 °F 30% 29.92 in 10.0 mi West 9.2 mph - N/A   Clear
12:55 AM 66.2 °F 35.6 °F 32% 29.92 in 10.0 mi North 6.9 mph - N/A   Clear
1:15 AM 62.6 °F 35.6 °F 37% 29.92 in 10.0 mi NNW 3.5 mph - N/A   Clear
1:35 AM 62.6 °F 35.6 °F 37% 29.93 in 10.0 mi NW 5.8 mph - N/A   Clear
1:55 AM 60.8 °F 35.6 °F 39% 29.92 in 10.0 mi NW 6.9 mph - N/A   Clear
2:15 AM 59.0 °F 37.4 °F 45% 29.92 in 10.0 mi WNW 5.8 mph - N/A   Clear
2:35 AM 57.2 °F 35.6 °F 44% 29.92 in 10.0 mi WNW 5.8 mph - N/A   Clear
3:15 AM 55.4 °F 37.4 °F 51% 29.93 in 10.0 mi West 5.8 mph - N/A   Clear
3:35 AM 57.2 °F 35.6 °F 44% 29.93 in 10.0 mi SW 3.5 mph - N/A   Clear
3:55 AM 57.2 °F 35.6 °F 44% 29.93 in 10.0 mi NW 4.6 mph - N/A   Clear
4:15 AM 55.4 °F 33.8 °F 44% 29.94 in 10.0 mi NNW 3.5 mph - N/A   Clear
4:35 AM 55.4 °F 35.6 °F 47% 29.94 in 10.0 mi Calm Calm - N/A   Clear
4:55 AM 53.6 °F 33.8 °F 47% 29.94 in 10.0 mi Calm Calm - N/A   Clear
5:15 AM 53.6 °F 33.8 °F 47% 29.95 in 10.0 mi Calm Calm - N/A   Clear
5:35 AM 55.4 °F 33.8 °F 44% 29.96 in 10.0 mi NNW 3.5 mph - N/A   Clear
6:15 AM 51.8 °F 33.8 °F 50% 29.97 in 10.0 mi NNW 4.6 mph - N/A   Clear
6:35 AM 53.6 °F 33.8 °F 47% 29.97 in 9.0 mi NNW 4.6 mph - N/A   Clear
6:55 AM 53.6 °F 35.6 °F 51% 29.98 in 8.0 mi NNW 5.8 mph - N/A   Clear
7:15 AM 57.2 °F 35.6 °F 44% 29.98 in 9.0 mi Calm Calm - N/A   Clear
7:35 AM 59.0 °F 37.4 °F 45% 29.99 in 9.0 mi Calm Calm - N/A   Clear
7:55 AM 60.8 °F 37.4 °F 42% 29.99 in 8.0 mi Calm Calm - N/A   Clear
8:15 AM 62.6 °F 37.4 °F 39% 30.00 in 2.0 mi Calm Calm - N/A   Clear
8:35 AM 64.4 °F 37.4 °F 37% 30.00 in 10.0 mi Calm Calm - N/A   Clear
8:55 AM 64.4 °F 39.2 °F 40% 30.00 in 7.0 mi Calm Calm - N/A   Clear
9:15 AM 66.2 °F 39.2 °F 37% 30.00 in 7.0 mi SSE 3.5 mph - N/A   Clear
9:35 AM 66.2 °F 37.4 °F 35% 30.01 in 10.0 mi SSE 4.6 mph - N/A   Clear
9:55 AM 68.0 °F 37.4 °F 33% 30.01 in 10.0 mi SSW 5.8 mph - N/A   Clear
10:15 AM 68.0 °F 37.4 °F 33% 30.01 in 10.0 mi SSW 5.8 mph - N/A   Clear
10:35 AM 69.8 °F 37.4 °F 31% 30.01 in 10.0 mi SSW 5.8 mph - N/A   Clear
11:15 AM 73.4 °F 35.6 °F 25% 30.00 in 10.0 mi SW 5.8 mph - N/A   Clear
11:35 AM 73.4 °F 37.4 °F 27% 30.00 in 10.0 mi South 5.8 mph - N/A   Clear
11:55 AM 75.2 °F 35.6 °F 24% 29.99 in 10.0 mi SW 10.4 mph - N/A   Clear
12:15 PM 75.2 °F 32.0 °F 21% 29.98 in 10.0 mi Calm Calm - N/A   Clear
12:35 PM 77.0 °F 32.0 °F 19% 29.97 in 10.0 mi West 8.1 mph - N/A   Clear
12:55 PM 78.8 °F 28.4 °F 16% 29.96 in 10.0 mi West 8.1 mph 17.3 mph N/A   Clear
1:15 PM 78.8 °F 28.4 °F 16% 29.95 in 10.0 mi SW 9.2 mph 16.1 mph N/A   Clear
1:35 PM 80.6 °F 28.4 °F 15% 29.95 in 10.0 mi SW 10.4 mph 23.0 mph N/A   Clear
2:15 PM 80.6 °F 32.0 °F 17% 29.93 in 10.0 mi WSW 6.9 mph - N/A   Clear
2:35 PM 80.6 °F 28.4 °F 15% 29.92 in 10.0 mi West 9.2 mph - N/A   Clear
2:55 PM 80.6 °F 28.4 °F 15% 29.91 in 10.0 mi West 11.5 mph - N/A   Clear
3:15 PM 82.4 °F 28.4 °F 14% 29.90 in 10.0 mi West 8.1 mph - N/A   Clear
3:35 PM 80.6 °F 28.4 °F 15% 29.90 in 10.0 mi SW 11.5 mph 17.3 mph N/A   Clear
4:15 PM 80.6 °F 28.4 °F 15% 29.88 in 10.0 mi SSW 11.5 mph 18.4 mph N/A   Clear
4:35 PM 82.4 °F 24.8 °F 12% 29.88 in 10.0 mi SSW 8.1 mph - N/A   Clear
4:55 PM 80.6 °F 24.8 °F 13% 29.88 in 10.0 mi SSW 9.2 mph - N/A   Clear
5:15 PM 80.6 °F 23.0 °F 12% 29.87 in 10.0 mi SW 9.2 mph 20.7 mph N/A   Clear
5:35 PM 80.6 °F 26.6 °F 14% 29.87 in 10.0 mi SSW 11.5 mph 16.1 mph N/A   Clear
5:55 PM 77.0 °F 30.2 °F 18% 29.87 in 10.0 mi SSW 11.5 mph 17.3 mph N/A   Clear
6:15 PM 77.0 °F 30.2 °F 18% 29.87 in 10.0 mi South 8.1 mph - N/A   Clear
6:35 PM 75.2 °F 30.2 °F 19% 29.88 in 10.0 mi SSW 9.2 mph - N/A   Clear
6:55 PM 73.4 °F 32.0 °F 22% 29.88 in 10.0 mi SSW 6.9 mph - N/A   Clear
7:15 PM 71.6 °F 32.0 °F 23% 29.88 in 10.0 mi SW 4.6 mph - N/A   Partly Cloudy
7:35 PM 71.6 °F 32.0 °F 23% 29.88 in 10.0 mi SW 8.1 mph - N/A   Partly Cloudy
7:55 PM 71.6 °F 30.2 °F 22% 29.89 in 10.0 mi SW 11.5 mph - N/A   Clear
8:15 PM 69.8 °F 32.0 °F 25% 29.89 in 10.0 mi SW 10.4 mph - N/A   Scattered Clouds
8:35 PM 68.0 °F 32.0 °F 26% 29.90 in 10.0 mi WSW 8.1 mph - N/A   Mostly Cloudy
8:55 PM 68.0 °F 30.2 °F 24% 29.90 in 10.0 mi WSW 8.1 mph - N/A   Partly Cloudy
9:15 PM 68.0 °F 32.0 °F 26% 29.90 in 10.0 mi WSW 10.4 mph - N/A   Clear
9:35 PM 66.2 °F 30.2 °F 26% 29.90 in 10.0 mi West 8.1 mph - N/A   Clear
9:55 PM 66.2 °F 28.4 °F 24% 29.90 in 10.0 mi NNW 6.9 mph - N/A   Clear
10:15 PM 66.2 °F 26.6 °F 23% 29.90 in 10.0 mi WNW 5.8 mph - N/A   Clear
10:35 PM 62.6 °F 24.8 °F 24% 29.89 in 10.0 mi NW 5.8 mph - N/A   Clear
10:55 PM 59.0 °F 23.0 °F 25% 29.90 in 10.0 mi North 8.1 mph - N/A   Clear
11:15 PM 59.0 °F 21.2 °F 23% 29.89 in 10.0 mi NNW 4.6 mph - N/A   Clear
11:35 PM 59.0 °F 23.0 °F 25% 29.89 in 10.0 mi North 5.8 mph - N/A   Clear
11:55 PM 57.2 °F 21.2 °F 25% 29.89 in 10.0 mi North 8.1 mph - N/A   Clear